Location: Carabito
(9.8355°N, 67.9249°W)
Time: 12:11:10
(UTC+00:00)

Hubble Space Telescope - Pass Details

Date: 23 May 2024
Orbit: 510 x 514 km, 28.5° (Epoch: 24 June)

Event Time Altitude Azimuth Distance (km) Brightness Sun altitude
Exits shadow 08:30:20 29° 340° (NNW) 955 2.0 -23.2°
Maximum altitude 08:31:44 39° 26° (NNE) 760 1.9 -22.9°
Drops below altitude 10° 08:35:27 10° 97° (E) 1,713 4.1 -22.1°
Sets 08:37:47 0° 104° (ESE) 2,599 5.0 -21.6°
